DW6344 Weather Reports


Display with metric or nautical units.
time (UTC)temp
F
wind
direction
speed
MPH
gust
MPH
rain 1hr
in
rain 24hr
in
rain mn
in
humidity
%
barometer
mb
20260904135332 87 42 1.0 2.0 0.00 0.00 0.00 70 1011.2
20260904134843 87 109 1.0 2.0 0.00 0.00 0.00 70 1011.2
20260904134358 86 161 1.0 3.0 0.00 0.00 0.00 71 1011.3
20260904133858 86 183 0.0 3.0 0.00 0.00 0.00 72 1011.1
20260904133339 86 200 1.0 3.0 0.00 0.00 0.00 71 1011.2
20260904132848 86 173 0.0 3.0 0.00 0.00 0.00 72 1011.3
20260904132336 85 34 1.0 3.0 0.00 0.00 0.00 73 1011.3
20260904131835 85 5 0.0 2.0 0.00 0.00 0.00 74 1011.2
20260904131330 85 5 0.0 2.0 0.00 0.00 0.00 75 1011.2
20260904130848 84 360 0.0 1.0 0.00 0.00 0.00 75 1011.2
20260904130346 84 360 0.0 3.0 0.00 0.00 0.00 76 1011.3
20260904125917 84 360 0.0 3.0 0.00 0.00 0.00 77 1011.3
20260904125333 84 17 0.0 2.0 0.00 0.00 0.00 77 1011.4
20260904124837 83 67 0.0 2.0 0.00 0.00 0.00 77 1011.6
20260904124354 83 22 0.0 2.0 0.00 0.00 0.00 78 1011.6
20260904123843 83 250 0.0 1.0 0.00 0.00 0.00 80 1011.7
20260904123354 82 245 0.0 1.0 0.00 0.00 0.00 80 1011.6
20260904122852 82 244 0.0 1.0 0.00 0.00 0.00 81 1011.6
20260904122408 81 242 0.0 1.0 0.00 0.00 0.00 82 1011.7
20260904121832 81 33 0.0 2.0 0.00 0.00 0.00 83 1011.6
20260904121402 81 33 0.0 2.0 0.00 0.00 0.00 84 1011.6
20260904120900 80 360 0.0 1.0 0.00 0.00 0.00 85 1011.5
20260904120403 80 360 0.0 1.0 0.00 0.00 0.00 85 1011.5
20260904115838 79 144 0.0 0.0 0.00 0.00 0.00 86 1011.6
20260904115341 79 155 0.0 1.0 0.00 0.00 0.00 87 1011.6
20260904114920 79 142 0.0 1.0 0.00 0.00 0.00 87 1011.6
20260904114331 78 273 0.0 0.0 0.00 0.00 0.00 88 1011.6
20260904113852 78 273 0.0 0.0 0.00 0.00 0.00 88 1011.6
20260904113336 78 62 0.0 0.0 0.00 0.00 0.00 88 1011.6
20260904112851 78 62 0.0 0.0 0.00 0.00 0.00 88 1011.5
20260904112351 78 61 0.0 0.0 0.00 0.00 0.00 88 1011.5
20260904111852 78 61 0.0 0.0 0.00 0.00 0.00 88 1011.6
20260904111342 77 61 0.0 0.0 0.00 0.00 0.00 88 1011.4
20260904110908 77 62 0.0 0.0 0.00 0.00 0.00 88 1011.5
20260904110327 77 61 0.0 0.0 0.00 0.00 0.00 88 1011.4
20260904105848 77 62 0.0 0.0 0.00 0.00 0.00 88 1011.3
20260904105335 77 61 0.0 0.0 0.00 0.00 0.00 87 1011.3
20260904104830 77 62 0.0 0.0 0.00 0.00 0.00 87 1011.2
20260904104400 77 62 0.0 0.0 0.00 0.00 0.00 87 1011.2
20260904103901 77 62 0.0 0.0 0.00 0.00 0.00 87 1011.3
20260904103341 77 62 0.0 0.0 0.00 0.00 0.00 87 1011.3
20260904102833 77 62 0.0 0.0 0.00 0.00 0.00 87 1011.2
20260904102350 77 61 0.0 0.0 0.00 0.00 0.00 86 1011.3
20260904101859 77 62 0.0 0.0 0.00 0.00 0.00 86 1011.3
20260904101358 77 61 0.0 0.0 0.00 0.00 0.00 86 1011.2
20260904100830 77 61 0.0 0.0 0.00 0.00 0.00 86 1011.3
20260904100346 77 62 0.0 0.0 0.00 0.00 0.00 85 1011.4
20260904095842 77 62 0.0 0.0 0.00 0.00 0.00 85 1011.4
20260904095350 77 61 0.0 0.0 0.00 0.00 0.00 85 1011.5
20260904094830 77 61 0.0 0.0 0.00 0.00 0.00 84 1011.4
20260904094358 77 62 0.0 0.0 0.00 0.00 0.00 84 1011.5
20260904093853 78 62 0.0 0.0 0.00 0.00 0.00 84 1011.6
20260904093340 78 61 0.0 0.0 0.00 0.00 0.00 84 1011.7
20260904092914 78 61 0.0 0.0 0.00 0.00 0.00 84 1011.6
20260904092343 78 62 0.0 0.0 0.00 0.00 0.00 83 1011.7
20260904091837 78 61 0.0 0.0 0.00 0.00 0.00 83 1011.7
20260904091337 78 62 0.0 0.0 0.00 0.00 0.00 82 1011.7
20260904090844 78 62 0.0 0.0 0.00 0.00 0.00 82 1011.7
20260904090340 78 62 0.0 0.0 0.00 0.00 0.00 82 1011.8
20260904085849 79 61 0.0 0.0 0.00 0.00 0.00 82 1011.8
20260904085406 79 62 0.0 0.0 0.00 0.00 0.00 81 1011.8
20260904084839 79 62 0.0 0.0 0.00 0.00 0.00 81 1011.9
20260904084353 79 62 0.0 0.0 0.00 0.00 0.00 80 1011.9
20260904083848 79 62 0.0 0.0 0.00 0.00 0.00 80 1011.9
20260904083328 79 61 0.0 0.0 0.00 0.00 0.00 79 1011.9
20260904082841 80 61 0.0 0.0 0.00 0.00 0.00 79 1011.8
20260904082352 80 62 0.0 0.0 0.00 0.00 0.00 79 1011.8
20260904081833 80 62 0.0 0.0 0.00 0.00 0.00 78 1011.8
20260904081330 80 61 0.0 0.0 0.00 0.00 0.00 77 1011.8
20260904080831 81 62 0.0 1.0 0.00 0.00 0.00 77 1011.8
20260904080413 81 61 0.0 1.0 0.00 0.00 0.00 77 1011.8
20260904075846 81 61 0.0 1.0 0.00 0.00 0.00 76 1011.7
20260904075341 81 61 0.0 1.0 0.00 0.00 0.00 76 1011.8
20260904074918 81 62 0.0 1.0 0.00 0.00 0.00 76 1011.7
20260904074340 82 61 0.0 1.0 0.00 0.00 0.00 76 1011.8
20260904073855 82 37 0.0 1.0 0.00 0.00 0.00 75 1011.8
20260904073413 82 37 0.0 1.0 0.00 0.00 0.00 75 1011.7
20260904072852 82 37 0.0 0.0 0.00 0.00 0.00 74 1011.4
20260904072348 83 37 0.0 0.0 0.00 0.00 0.00 73 1011.5
20260904071856 83 37 0.0 0.0 0.00 0.00 0.00 73 1011.3
20260904071333 83 37 0.0 1.0 0.00 0.00 0.00 73 1011.5
20260904070837 84 37 0.0 1.0 0.00 0.00 0.00 72 1011.6
20260904070340 84 37 0.0 1.0 0.00 0.00 0.00 73 1011.6
20260904065835 84 37 0.0 1.0 0.00 0.00 0.00 73 1011.4
20260904065328 84 46 0.0 4.0 0.00 0.00 0.00 73 1012.0
20260904064857 84 55 1.0 4.0 0.00 0.00 0.00 74 1012.0
20260904064329 83 14 0.0 2.0 0.00 0.00 0.00 76 1012.2
20260904063831 83 106 0.0 0.0 0.00 0.00 0.00 76 1011.0
20260904063334 83 107 0.0 1.0 0.00 0.00 0.00 76 1011.0
20260904062838 83 107 0.0 1.0 0.00 0.00 0.00 76 1011.0
20260904062327 83 107 0.0 1.0 0.00 0.00 0.00 76 1011.0
20260904061906 83 107 0.0 0.0 0.00 0.00 0.00 76 1011.0
20260904061340 83 106 0.0 3.0 0.00 0.00 0.00 76 1011.0
20260904060858 83 83 0.0 2.0 0.00 0.00 0.00 76 1011.1
20260904060334 83 35 0.0 1.0 0.00 0.00 0.00 76 1011.1
20260904055847 83 34 0.0 1.0 0.00 0.00 0.00 76 1011.2
20260904055344 83 34 0.0 1.0 0.00 0.00 0.00 76 1011.2
20260904054921 83 33 0.0 1.0 0.00 0.00 0.00 76 1011.2
20260904054359 83 342 0.0 2.0 0.00 0.00 0.00 76 1011.2
20260904053906 84 329 0.0 2.0 0.00 0.00 0.00 76 1011.3
20260904053352 84 71 0.0 1.0 0.00 0.00 0.00 76 1011.3
20260904052902 84 71 0.0 2.0 0.00 0.00 0.00 75 1011.3
20260904052334 84 71 0.0 3.0 0.00 0.00 0.00 75 1011.4
20260904051833 84 95 0.0 3.0 0.00 0.00 0.00 76 1011.4
20260904051332 84 48 0.0 1.0 0.00 0.00 0.00 75 1011.3
20260904050835 84 73 0.0 1.0 0.00 0.00 0.00 75 1011.5
20260904050359 84 72 0.0 1.0 0.00 0.00 0.00 75 1011.7
20260904045900 84 73 0.0 2.0 0.00 0.00 0.00 75 1011.7
20260904045405 84 69 0.0 3.0 0.00 0.00 0.00 76 1011.8
20260904044845 84 69 0.0 3.0 0.00 0.00 0.00 76 1011.9
20260904044332 84 54 0.0 6.0 0.00 0.00 0.00 78 1011.8
20260904043852 83 102 0.0 6.0 0.00 0.00 0.00 79 1011.8
20260904043344 83 75 0.0 2.0 0.00 0.00 0.00 79 1011.7
20260904042844 83 75 0.0 2.0 0.00 0.00 0.00 81 1011.7
20260904042336 83 75 0.0 2.0 0.00 0.00 0.00 82 1011.7
20260904041911 82 103 0.0 3.0 0.00 0.00 0.00 84 1011.6
20260904041353 82 103 0.0 3.0 0.00 0.00 0.00 85 1011.7
20260904040852 82 355 0.0 2.0 0.00 0.00 0.00 86 1011.7
20260904040403 82 15 0.0 0.0 0.00 0.00 0.00 87 1011.9
20260904035843 82 15 0.0 0.0 0.00 0.00 0.00 87 1011.8
20260904035418 82 15 0.0 0.0 0.00 0.00 0.00 87 1011.8
20260904034843 82 15 0.0 0.0 0.00 0.00 0.00 87 1011.8
20260904034341 82 15 0.0 0.0 0.00 0.00 0.00 87 1011.8
20260904033842 82 15 0.0 0.0 0.00 0.00 0.00 87 1011.8
20260904033356 82 15 0.0 0.0 0.00 0.00 0.00 87 1011.9
20260904032852 82 15 0.0 0.0 0.00 0.00 0.00 87 1011.9
20260904032329 82 15 0.0 0.0 0.00 0.00 0.00 87 1012.0
20260904031909 82 15 0.0 0.0 0.00 0.00 0.00 87 1011.9
20260904031334 82 15 0.0 0.0 0.00 0.00 0.00 87 1011.9
20260904030829 81 15 0.0 0.0 0.00 0.00 0.00 87 1011.8
20260904030401 81 15 0.0 1.0 0.00 0.00 0.00 87 1011.8
20260904025841 81 15 0.0 1.0 0.00 0.00 0.00 87 1011.9
20260904025336 81 15 0.0 0.0 0.00 0.00 0.00 87 1011.8
20260904024836 81 15 0.0 0.0 0.00 0.00 0.00 87 1011.8
20260904024358 81 15 0.0 0.0 0.00 0.00 0.00 87 1011.8
20260904023838 81 15 0.0 0.0 0.00 0.00 0.00 87 1011.9
20260904023357 81 15 0.0 0.0 0.00 0.00 0.00 87 1012.0
20260904022845 81 15 0.0 0.0 0.00 0.00 0.00 86 1012.0
20260904022359 81 15 0.0 0.0 0.00 0.00 0.00 86 1012.1
20260904021832 81 15 0.0 0.0 0.00 0.00 0.00 86 1012.2
20260904021332 81 15 0.0 0.0 0.00 0.00 0.00 86 1012.2
20260904020843 81 15 0.0 0.0 0.00 0.00 0.00 86 1012.3
20260904020419 81 15 0.0 0.0 0.00 0.00 0.00 85 1012.4
20260904015853 81 15 0.0 0.0 0.00 0.00 0.00 85 1012.5
20260904015351 82 15 0.0 0.0 0.00 0.00 0.00 85 1012.6
20260904014834 82 15 0.0 0.0 0.00 0.00 0.00 85 1012.6
20260904014331 82 15 0.0 0.0 0.00 0.00 0.00 85 1012.6
20260904013845 82 15 0.0 0.0 0.00 0.00 0.00 84 1012.6
20260904013346 82 15 0.0 0.0 0.00 0.00 0.00 84 1012.7
20260904012841 82 15 0.0 0.0 0.00 0.00 0.00 84 1012.8
20260904012403 82 15 0.0 0.0 0.00 0.00 0.00 83 1012.8
20260904011846 82 15 0.0 0.0 0.00 0.00 0.00 83 1012.8
20260904011340 82 15 0.0 0.0 0.00 0.00 0.00 83 1012.7
20260904010842 82 15 0.0 0.0 0.00 0.00 0.00 82 1012.8
20260904010342 82 15 0.0 0.0 0.00 0.00 0.00 82 1012.8
20260904005854 82 15 0.0 0.0 0.00 0.00 0.00 82 1012.8
20260904005336 83 15 0.0 0.0 0.00 0.00 0.00 81 1012.7
20260904004837 83 15 0.0 0.0 0.00 0.00 0.00 81 1012.7
20260904004325 83 15 0.0 0.0 0.00 0.00 0.00 80 1012.6
20260904003833 83 15 0.0 0.0 0.00 0.00 0.00 80 1012.5
20260904003346 83 15 0.0 0.0 0.00 0.00 0.00 80 1012.5
20260904002844 83 15 0.0 0.0 0.00 0.00 0.00 79 1012.3
20260904002343 84 15 0.0 0.0 0.00 0.00 0.00 79 1012.3
20260904001848 84 15 0.0 0.0 0.00 0.00 0.00 78 1012.2
20260904001343 84 15 0.0 0.0 0.00 0.00 0.00 77 1012.2
20260904000845 84 15 0.0 0.0 0.00 0.00 0.00 77 1012.1
20260904000344 84 15 0.0 0.0 0.00 0.00 0.00 76 1012.1
20260903235853 85 15 0.0 0.0 0.00 0.00 0.00 76 1011.8
20260903235330 85 15 0.0 0.0 0.00 0.00 0.00 75 1011.8
20260903234831 85 15 0.0 0.0 0.00 0.00 0.00 74 1011.7
20260903234400 85 15 0.0 0.0 0.00 0.00 0.00 74 1011.6
20260903233855 86 15 0.0 0.0 0.00 0.00 0.00 73 1011.6
20260903233402 86 15 0.0 0.0 0.00 0.00 0.00 72 1011.6
20260903232836 87 15 0.0 0.0 0.00 0.00 0.00 71 1011.6
20260903232336 87 331 0.0 0.0 0.00 0.00 0.00 70 1011.6
20260903231838 87 347 0.0 0.0 0.00 0.00 0.00 69 1011.5
20260903231329 88 346 0.0 0.0 0.00 0.00 0.00 68 1011.4
20260903230845 88 346 0.0 0.0 0.00 0.00 0.00 67 1011.4
20260903230330 89 347 0.0 0.0 0.00 0.00 0.00 66 1011.3
20260903225846 89 347 0.0 0.0 0.00 0.00 0.00 65 1011.5
20260903225346 90 347 0.0 0.0 0.00 0.00 0.00 64 1011.4
20260903224858 90 347 0.0 0.0 0.00 0.00 0.00 63 1011.3
20260903224338 91 13 0.0 0.0 0.00 0.00 0.00 62 1011.2
20260903223839 92 13 0.0 0.0 0.00 0.00 0.00 62 1011.3
20260903223337 92 12 0.0 0.0 0.00 0.00 0.00 61 1011.4
20260903222853 93 36 0.0 0.0 0.00 0.00 0.00 59 1011.4
20260903222336 93 36 0.0 0.0 0.00 0.00 0.00 59 1011.4
20260903221841 93 36 0.0 0.0 0.00 0.00 0.00 54 1011.3
20260903221347 94 36 0.0 0.0 0.00 0.00 0.00 56 1011.4
20260903220843 94 36 0.0 1.0 0.00 0.00 0.00 55 1011.4
20260903220402 94 36 0.0 1.0 0.00 0.00 0.00 53 1011.4
20260903215832 94 36 0.0 1.0 0.00 0.00 0.00 53 1011.5
20260903215340 94 36 0.0 1.0 0.00 0.00 0.00 57 1011.4
20260903214853 94 36 0.0 1.0 0.00 0.00 0.00 57 1011.4
20260903214334 94 36 0.0 1.0 0.00 0.00 0.00 55 1011.3
20260903213836 94 36 0.0 1.0 0.00 0.00 0.00 55 1011.4
20260903213333 94 36 0.0 0.0 0.00 0.00 0.00 54 1011.4
20260903212834 94 36 0.0 1.0 0.00 0.00 0.00 56 1011.4
20260903212342 94 36 0.0 1.0 0.00 0.00 0.00 56 1011.5
20260903211847 94 36 0.0 1.0 0.00 0.00 0.00 54 1011.4
20260903211325 95 36 0.0 0.0 0.00 0.00 0.00 56 1011.5
20260903210829 95 36 0.0 0.0 0.00 0.00 0.00 55 1011.4
20260903210339 95 36 0.0 1.0 0.00 0.00 0.00 52 1011.4
20260903205840 95 36 0.0 1.0 0.00 0.00 0.00 53 1011.4
20260903205337 95 36 0.0 1.0 0.00 0.00 0.00 53 1011.6
20260903204852 96 36 0.0 2.0 0.00 0.00 0.00 51 1011.8
20260903204407 96 36 0.0 2.0 0.00 0.00 0.00 50 1011.7
20260903203829 95 36 0.0 1.0 0.00 0.00 0.00 50 1011.9
20260903203346 95 36 0.0 1.0 0.00 0.00 0.00 55 1011.9
20260903202848 95 36 0.0 1.0 0.00 0.00 0.00 53 1011.9
20260903202353 95 36 0.0 1.0 0.00 0.00 0.00 51 1012.0
20260903201847 95 36 0.0 1.0 0.00 0.00 0.00 51 1012.1
20260903201347 95 36 0.0 1.0 0.00 0.00 0.00 52 1012.0
20260903200858 95 36 0.0 2.0 0.00 0.00 0.00 53 1012.1
20260903200331 96 36 0.0 2.0 0.00 0.00 0.00 51 1012.2
20260903195851 96 5 0.0 2.0 0.00 0.00 0.00 49 1012.3
20260903195406 97 5 0.0 2.0 0.00 0.00 0.00 50 1012.3
20260903194841 97 44 0.0 3.0 0.00 0.00 0.00 51 1012.3
20260903194355 97 44 0.0 3.0 0.00 0.00 0.00 51 1012.4
20260903193842 97 55 2.0 3.0 0.00 0.00 0.00 49 1012.5
20260903193404 97 101 0.0 2.0 0.00 0.00 0.00 52 1012.5
20260903192916 96 49 0.0 3.0 0.00 0.00 0.00 52 1012.6
20260903192332 96 39 0.0 3.0 0.00 0.00 0.00 52 1012.5
20260903191833 96 83 0.0 2.0 0.00 0.00 0.00 54 1012.5
20260903191343 96 84 1.0 2.0 0.00 0.00 0.00 54 1012.6
20260903190845 96 86 0.0 1.0 0.00 0.00 0.00 55 1012.7
20260903190345 96 86 0.0 2.0 0.00 0.00 0.00 56 1012.7
20260903185851 96 86 0.0 2.0 0.00 0.00 0.00 57 1012.8
20260903185346 95 86 0.0 2.0 0.00 0.00 0.00 58 1012.9
20260903184921 95 86 0.0 3.0 0.00 0.00 0.00 58 1013.0
20260903184358 95 171 0.0 3.0 0.00 0.00 0.00 57 1013.1
20260903183838 95 145 0.0 1.0 0.00 0.00 0.00 57 1013.2
20260903183337 95 136 0.0 2.0 0.00 0.00 0.00 58 1013.3
20260903182837 94 355 1.0 2.0 0.00 0.00 0.00 56 1013.3
20260903182355 94 64 0.0 2.0 0.00 0.00 0.00 56 1013.4
20260903181852 94 64 1.0 2.0 0.00 0.00 0.00 58 1013.4
20260903181358 94 64 0.0 2.0 0.00 0.00 0.00 59 1013.4
20260903180838 94 64 0.0 3.0 0.00 0.00 0.00 56 1013.5
20260903180340 94 52 2.0 3.0 0.00 0.00 0.00 56 1013.5
20260903175858 94 326 0.0 1.0 0.00 0.00 0.00 60 1013.5
20260903175344 93 51 0.0 1.0 0.00 0.00 0.00 60 1013.5
20260903174842 93 50 0.0 2.0 0.00 0.00 0.00 60 1013.6
20260903174336 93 80 0.0 2.0 0.00 0.00 0.00 64 1013.7
20260903173851 92 79 0.0 2.0 0.00 0.00 0.00 64 1013.7
20260903173351 92 79 0.0 1.0 0.00 0.00 0.00 62 1013.7
20260903172835 92 80 0.0 1.0 0.00 0.00 0.00 62 1013.7
20260903172404 93 80 0.0 1.0 0.00 0.00 0.00 60 1013.8
20260903171831 93 80 0.0 1.0 0.00 0.00 0.00 60 1013.8
20260903171330 94 80 0.0 1.0 0.00 0.00 0.00 60 1013.9
20260903170832 94 80 0.0 1.0 0.00 0.00 0.00 60 1014.0
20260903170350 94 63 0.0 2.0 0.00 0.00 0.00 60 1014.0
20260903165907 94 69 1.0 3.0 0.00 0.00 0.00 60 1014.0
20260903165344 94 86 0.0 1.0 0.00 0.00 0.00 59 1014.1
20260903164901 93 85 0.0 3.0 0.00 0.00 0.00 61 1014.1
20260903164325 93 87 0.0 3.0 0.00 0.00 0.00 65 1014.2
20260903163835 92 81 0.0 3.0 0.00 0.00 0.00 63 1014.3
20260903163358 92 87 1.0 3.0 0.00 0.00 0.00 62 1014.3
20260903162854 92 88 1.0 3.0 0.00 0.00 0.00 63 1014.2
20260903162358 91 97 0.0 2.0 0.00 0.00 0.00 62 1014.4
20260903161855 91 96 0.0 3.0 0.00 0.00 0.00 63 1014.4
20260903161336 91 97 1.0 3.0 0.00 0.00 0.00 65 1014.4
20260903160831 91 40 2.0 3.0 0.00 0.00 0.00 63 1014.4
20260903160333 91 76 0.0 2.0 0.00 0.00 0.00 66 1014.5
20260903155832 91 77 0.0 1.0 0.00 0.00 0.00 66 1014.6
20260903155347 91 76 0.0 2.0 0.00 0.00 0.00 66 1014.7
20260903154902 91 76 0.0 3.0 0.00 0.00 0.00 65 1014.6
20260903154332 91 76 1.0 2.0 0.00 0.00 0.00 67 1014.7
20260903153830 90 83 0.0 2.0 0.00 0.00 0.00 69 1014.7
20260903153353 90 83 0.0 2.0 0.00 0.00 0.00 70 1014.8
20260903152907 90 83 0.0 1.0 0.00 0.00 0.00 69 1014.7
20260903152356 89 83 0.0 2.0 0.00 0.00 0.00 71 1014.7
20260903151909 89 83 0.0 2.0 0.00 0.00 0.00 70 1014.8
20260903151402 89 83 0.0 2.0 0.00 0.00 0.00 72 1014.7
20260903150835 88 83 0.0 2.0 0.00 0.00 0.00 72 1014.8
20260903150345 88 83 0.0 1.0 0.00 0.00 0.00 74 1014.7
20260903145843 87 80 0.0 1.0 0.00 0.00 0.00 74 1014.6
20260903145343 87 80 0.0 1.0 0.00 0.00 0.00 75 1014.7
20260903144833 87 79 0.0 2.0 0.00 0.00 0.00 76 1014.8
20260903144333 87 87 0.0 1.0 0.00 0.00 0.00 76 1014.7
20260903143849 87 84 0.0 1.0 0.00 0.00 0.00 75 1014.7
20260903143346 86 78 0.0 1.0 0.00 0.00 0.00 76 1014.6
20260903142831 86 78 0.0 2.0 0.00 0.00 0.00 78 1014.6
20260903142349 85 78 0.0 2.0 0.00 0.00 0.00 77 1014.6
20260903141852 85 101 0.0 2.0 0.00 0.00 0.00 78 1014.6
20260903141347 85 139 0.0 1.0 0.00 0.00 0.00 79 1014.6
20260903140847 84 140 0.0 0.0 0.00 0.00 0.00 80 1014.7
20260903140341 84 140 0.0 1.0 0.00 0.00 0.00 81 1014.5
20260903135839 83 140 0.0 1.0 0.00 0.00 0.00 82 1014.7